Home   Weather   Salzburg   Past weeks

Flag for Austria Past Weather in Salzburg, Salzburg, Austria — Yesterday and Last 2 Weeks

Now
12 °F

Passing clouds.


Feels Like: N/A
Forecast: 7 / 20 °F
Wind: N/A

Location: Salzburg-Flughafen

Current Time: Jan 23, 2017 at 8:31:50 pm

Latest Report: Jan 23, 2017 at 7:00 pm


Visibility: 1 mi

Pressure: 30.34 "Hg

Humidity: 92%

Dew Point: 10 °F

Location of SalzburgLocation

Past Weather in Salzburg — Graph

°F

Salzburg Temperature Yesterday

Maximum temperature yesterday: 22 °F (at 4:00 pm)
Minimum temperature yesterday: 4 °F (at 12:00 am)
Average temperature yesterday: 11 °F

High & Low Weather Summary for the Past Weeks

 TemperatureHumidityPressure
High42 °F (Jan 12, 1:00 pm)100% (Jan 21, 4:00 am)30.68 "Hg (Jan 21, 4:00 am)
Low1 °F (Jan 20, 7:00 am)46% (Jan 13, 12:00 pm)29.38 "Hg (Jan 13, 4:00 am)
Average22 °F86%30.26 "Hg
* Reported Jan 8 7:00 pm — Jan 23 7:00 pm, Salzburg, Weather by CustomWeather, © 2017

Note: Actual official high and low records may vary slightly from our data, if they occured in-between our weather recording intervals... More about our weather records

Advertising

Salzburg Weather History for the Previous 24 Hours

Scroll right to see more
 ConditionsComfort  
Time TempWeatherWind HumidityBarometerVisibility
7:00 pm
Mon, Jan 23
12 °FPassing clouds.N/A92%30.34 "Hg1 mi
6:00 pm13 °FPassing clouds.N/A89%30.33 "Hg2 mi
5:00 pm18 °FPassing clouds.N/A82%30.30 "Hg1 mi
4:00 pm21 °FSunny.N/A82%30.29 "Hg2 mi
3:00 pm19 °FSunny.N/A88%30.30 "Hg2 mi
2:00 pm18 °FSunny.N/A92%30.31 "Hg2 mi
1:00 pm16 °FSunny.N/A93%30.33 "Hg1 mi
12:00 pm12 °FPassing clouds.N/A91%30.36 "Hg1 mi
11:00 am10 °FIcy mix. Scattered clouds.N/A90%30.38 "Hg1 mi
10:00 am8 °FIcy mix. Partly sunny.N/A89%30.39 "Hg0 mi
9:00 am6 °FLight snow. Low clouds.N/A89%30.39 "Hg0 mi
8:00 am2 °FPartly sunny.N/A87%30.40 "Hg2 mi
7:00 am4 °FPassing clouds.N/A88%30.39 "Hg2 mi
6:00 am2 °FPassing clouds.N/A87%30.39 "Hg2 mi
5:00 am2 °FPassing clouds.N/A100%30.40 "Hg0 mi
4:00 am4 °FPassing clouds.N/A100%30.40 "Hg0 mi
3:00 am6 °FPassing clouds.N/A100%30.39 "Hg0 mi
2:00 am6 °FLight snow. Passing clouds.N/A89%30.40 "Hg0 mi
1:00 am9 °FPassing clouds.N/A90%30.37 "Hg0 mi
12:00 am9 °FPassing clouds.N/A89%30.38 "Hg2 mi
11:00 pm
Sun, Jan 22
7 °FPassing clouds.N/A89%30.37 "Hg2 mi
10:00 pm7 °FClear.N/A89%30.37 "Hg2 mi
9:00 pm9 °FClear.N/A89%30.37 "Hg1 mi
8:00 pm10 °FClear.N/A90%30.37 "Hg1 mi
Weather by CustomWeather, © 2017

See weather overviewHow to use our weather pages